Find Orbcomm A3

NORAD ID: 25119 Int'l Des: 1997-084 Owner: ORBC Country: US Constellation: orbcomm operational
LEOCIRCULAR

当前视图

正在加载3D地球...

About Orbcomm A3

Orbcomm A3 (NORAD 25119) is a orbcomm constellation satellite launched Dec 23, 1997 by ORBC of US. It operates in LEO, CIRCULAR orbit with a mass of 42.00 kg.

关于 Orbcomm A3

正在加载描述...

即将过境

Passes for default location (London). Set your location on the main map for personalized predictions.

高度历史

Loading altitude history...

两行轨道根数

1 25119U 97084H 26195.54007754 .00000436 00000-0 15652-3 0 9996
2 25119 45.0135 281.7604 0000460 12.8671 347.2193 14.47634015498343
Epoch: Jul 14, 2026 • Age: 6 hours

当前状态

高度 743.7 km
远地点 / 近地点 N/A
速度 7.48 km/s
星下点 -35.32°S, 12.99°E
发射日期 Dec 23, 1997
运行时间 28.5 years
类型 other

技术详情

分类 Payload
质量 42.00 kg
干质量 42.00 kg
总质量 42.00 kg
长度 0.20 m
直径 1.00 m
跨度 4.30 m
形状 Cyl + 2 Pan + Ant
制造商 OSCG
平台类型 Microstar
阶段状态 Unknown Transfer Status
所有者/国家 ORBC/US

Most Searched